My Meet Scores
Jillian Riebe, United Gymnastics Academy - MyMeetScores.com
Top100 | Top Teams | Upcoming Meets | Completed Meets | Latest | Add Scores | Help| Support | Bookmark and Share

Jillian Riebe, United Gymnastics Academy
Personal Bests
LevelVault BarsBeamFloorAA
39.5259.575 9.5509.57537.625
49.7509.625 9.4259.50038.275
59.3509.000 9.3509.35036.575
79.1508.950 0.0009.42527.125
Scores on America's Top 100as of 09.26.2020
Year Level Vault Bars Beam Floor AA
2019 49.750

Click here to view our exclusive Top 100 Collection
Meet Scores
Date Meet Team Session Level Division Vault Bars Beam Floor AA
2020-02-21 Great Western Invitational - Women's United Gymnastics Academy 03 7 Buckaroo 9.150 5 8.825 16 0.000 20 8.500 20 26.475 20
2020-02-14 Big Classic United Gymnastics Academy 6A 7 Junior A 8.525 41T 7.550 45 0.000 52T 9.425 25T 25.500 52
2020-01-24 Uga Invitational United Gymnastics Academy 1A 7 Jr A 8.900 7 8.950 14 0.000 18T 9.275 17 27.125 18
2019-12-20 Aspire Classic - 2019 United Gymnastics Academy 3A 5 Younger 9.350 6T 9.000 10T 9.350 8 8.875 13T 36.575 8
2019-12-13 2019 St Nick United Gymnastics Academy 7A 5 JrA 9.175 8 8.825 7 9.050 8 9.350 6T 36.400 6
2019-03-22 Illinois Gymnastics State Championships Flipstar Gymnastics Academy 6 4 YT A 9.750 1 9.600 6T 9.425 5 9.500 2 38.275 2
2019-03-01 2019 MEGA Spring Invite Flipstar Gymnastics Academy All 4 All Ages 9.200 9T 9.400 7T 9.225 28T 9.450 7T 37.275 6
2019-02-23 Kinetic Classic 2019 Flipstar Gymnastics Academy 1 4 Younger 8.900 9 9.625 4T 9.250 7 9.225 8 37.000 4
2019-02-08 Midwest Twisters Harley Meet Womens Flipstar Gymnastics Academy T09 4 9b 9.050 1 9.350 3 9.225 2 9.125 3 36.750 2
2019-01-25 King Arthur Invitational Flipstar Gymnastics Academy 1 4 Jr C 9.025 1 9.150 5 9.275 1T 9.250 4 36.700 1
2019-01-11 Circle of Stars Gymnastics Flipstar Gymnastics Academy C07 4 Junior B 8.975 6T 9.200 5 8.475 23 9.325 4T 35.975 9
2018-12-07 Horton Invite Flipstar Gymnastics Academy 1 4 Chr B 8.725 7 9.275 4T 8.400 15T 9.300 3T 35.700 7T
2018-05-03 Illinois USA Gymnastics Level 3 State Championships Flipstar Gymnastics Academy 3 3 Youth C 9.350 21T 9.450 12 9.000 19T 9.150 19 36.950 19
2018-02-23 Kinetic Classic Flipstar Gymnastics Academy 4 3 Middle 8.925 49 9.550 7T 8.825 64T 9.525 13T 36.825 29T
2018-02-16 Big Classic Flipstar Gymnastics Academy 6B 3 Child B 9.100 6T 9.575 7 9.375 6 9.575 1 37.625 3T
2018-02-09 IGI Chicago Style Gymnastics Meet Flipstar Gymnastics Academy 42 3 631 LaSalle L3 C 9.200 12 9.150 6 9.550 4 9.575 3 37.475 4
2018-01-26 King Arthur Invitational Flipstar Gymnastics Academy 5 3 JR B 9.525 3 9.300 4 8.450 19 8.850 8 36.125 9
2017-12-08 Horton Invite At IWU Shirk Center Flipstar Gymnastics Academy All 3 Yth A 9.350 5T 9.200 3 9.175 3T 9.000 3 36.725 2
2017-11-17 SCGA Classic Flipstar Gymnastics Academy 1 3 JrB 9.050 7 9.450 1 9.225 1 9.300 2 37.025 1
2017-11-10 Illinois NAWGJ Judges Cup 2017 Flipstar Gymnastics Academy S6 3 All Ages 9.350 13T 9.500 1 9.200 2 9.225 4T 37.275 1
Get your scores on
a t-shirt, pin, or hoodie

www.lazysuits.com